,,,PA_Meas_PMT16A,,PR_Meas_QMR101_102,,RH_Meas_QMH101,,SR_Meas_QMS101,,TA_Meas_QMH101,,GenWind,,GenWind,
date,time,status,PA,status,PR,status,RH,status,SR,status,TA,status,DirAvg,status,SpdAvg,
2010-11-08, 00:00:04,VALID,1010.12,VALID,0,VALID,103.672,VALID,0,VALID,24.0624,VALID,86,VALID,1.21055,
2010-11-08, 00:01:04,VALID,1010.14,VALID,0,VALID,103.626,VALID,0.105969,VALID,24.0624,VALID,101,VALID,1.72422,
2010-11-08, 00:02:04,VALID,1010.17,VALID,0,VALID,103.642,VALID,0.105969,VALID,24.0819,VALID,96,VALID,1.25977,
2010-11-08, 00:03:04,VALID,1010.14,VALID,0,VALID,103.657,VALID,0.105969,VALID,24.0624,VALID,98,VALID,1.28672,
2010-11-08, 00:04:04,VALID,1010.17,VALID,0,VALID,103.634,VALID,0,VALID,24.0624,VALID,93,VALID,0.806641,
2010-11-08, 00:05:04,VALID,1010.18,VALID,0,VALID,103.642,VALID,0.105969,VALID,24.0837,VALID,110,VALID,0.976953,
2010-11-08, 00:06:04,VALID,1010.16,VALID,0,VALID,103.68,VALID,0,VALID,24.0429,VALID,101,VALID,1.46758,
2010-11-08, 00:07:04,VALID,1010.16,VALID,0,VALID,103.68,VALID,0.105969,VALID,24.0624,VALID,110,VALID,1.37305,
2010-11-08, 00:08:04,VALID,1010.15,VALID,0,VALID,103.672,VALID,0,VALID,24.0448,VALID,92,VALID,0.987109,
2010-11-08, 00:09:04,VALID,1010.18,VALID,0,VALID,103.703,VALID,0,VALID,24.0253,VALID,108,VALID,1.26641,
2010-11-08, 00:10:04,VALID,1010.18,VALID,0,VALID,103.695,VALID,0,VALID,24.0253,VALID,136,VALID,1.53555,
2010-11-08, 00:11:04,VALID,1010.17,VALID,0,VALID,103.687,VALID,0,VALID,24.0448,VALID,148,VALID,1.22773,
2010-11-08, 00:12:04,VALID,1010.18,VALID,0,VALID,103.687,VALID,0,VALID,24.0253,VALID,148,VALID,1.13281,
2010-11-08, 00:13:04,VALID,1010.19,VALID,0,VALID,103.695,VALID,0,VALID,24.0271,VALID,167,VALID,1.28477,
2010-11-08, 00:14:04,VALID,1010.18,VALID,0,VALID,103.695,VALID,0,VALID,24.0076,VALID,143,VALID,0.754687,
2010-11-08, 00:15:04,VALID,1010.17,VALID,0,VALID,103.687,VALID,0,VALID,23.9863,VALID,153,VALID,0.956641,
2010-11-08, 00:16:04,VALID,1010.18,VALID,0,VALID,103.695,VALID,0,VALID,23.9668,VALID,150,VALID,0.743359,
2010-11-08, 00:17:04,VALID,1010.14,VALID,0,VALID,103.726,VALID,0,VALID,23.9881,VALID,152,VALID,0.587109,
2010-11-08, 00:18:04,VALID,1010.17,VALID,0,VALID,103.703,VALID,0,VALID,23.9881,VALID,152,VALID,1.19141,
2010-11-08, 00:19:04,VALID,1010.19,VALID,0,VALID,103.718,VALID,0,VALID,23.9473,VALID,143,VALID,0.899219,
2010-11-08, 00:20:04,VALID,1010.19,VALID,0,VALID,103.71,VALID,0,VALID,23.9668,VALID,142,VALID,0.65625,
2010-11-08, 00:21:04,VALID,1010.23,VALID,0,VALID,103.68,VALID,0,VALID,23.965,VALID,164,VALID,1.07813,
2010-11-08, 00:22:04,VALID,1010.23,VALID,0,VALID,103.68,VALID,0,VALID,23.9881,VALID,154,VALID,0.864062,
2010-11-08, 00:23:04,VALID,1010.24,VALID,0,VALID,103.703,VALID,0,VALID,23.965,VALID,173,VALID,1.12773,
2010-11-08, 00:24:04,VALID,1010.23,VALID,0,VALID,103.703,VALID,0,VALID,23.9668,VALID,170,VALID,1.01406,
2010-11-08, 00:25:04,VALID,1010.22,VALID,0,VALID,103.687,VALID,0.105969,VALID,23.9668,VALID,167,VALID,0.900781,
2010-11-08, 00:26:04,VALID,1010.21,VALID,0,VALID,103.695,VALID,0,VALID,23.9473,VALID,140,VALID,0.523047,
2010-11-08, 00:27:04,VALID,1010.16,VALID,0,VALID,103.703,VALID,0.105969,VALID,23.926,VALID,151,VALID,0.497656,
2010-11-08, 00:28:04,VALID,1010.17,VALID,0,VALID,103.687,VALID,0.105969,VALID,23.9473,VALID,151,VALID,0.357422,
2010-11-08, 00:29:04,VALID,1010.14,VALID,0,VALID,103.68,VALID,0.105969,VALID,23.9863,VALID,151,VALID,0.391406,
2010-11-08, 00:30:04,VALID,1010.1,VALID,0,VALID,103.672,VALID,0,VALID,23.965,VALID,151,VALID,0.286719,
2010-11-08, 00:31:04,VALID,1010.07,VALID,0,VALID,103.695,VALID,0.105969,VALID,23.9455,VALID,137,VALID,0.824219,
2010-11-08, 00:32:04,VALID,1010.04,VALID,0,VALID,103.748,VALID,0.105969,VALID,23.9278,VALID,114,VALID,0.828125,
2010-11-08, 00:33:04,VALID,1010,VALID,0,VALID,103.687,VALID,0.105969,VALID,23.926,VALID,116,VALID,0.590234,
2010-11-08, 00:34:04,VALID,1010.01,VALID,0,VALID,103.703,VALID,0,VALID,23.9278,VALID,112,VALID,0.748438,
2010-11-08, 00:35:04,VALID,1009.97,VALID,0,VALID,103.687,VALID,0,VALID,23.9278,VALID,111,VALID,0.602344,
2010-11-08, 00:36:04,VALID,1009.96,VALID,0,VALID,103.664,VALID,0.105969,VALID,23.9455,VALID,110,VALID,0.539453,
2010-11-08, 00:37:04,VALID,1009.95,VALID,0,VALID,103.672,VALID,0.105969,VALID,23.965,VALID,108,VALID,0.810938,
2010-11-08, 00:38:04,VALID,1009.94,VALID,0,VALID,103.71,VALID,0.105969,VALID,23.926,VALID,103,VALID,1.11797,
2010-11-08, 00:39:04,VALID,1009.93,VALID,0,VALID,103.695,VALID,0.105969,VALID,23.926,VALID,102,VALID,1.01641,
2010-11-08, 00:40:04,VALID,1009.92,VALID,0,VALID,103.687,VALID,0.105969,VALID,23.9065,VALID,104,VALID,0.925781,
2010-11-08, 00:41:04,VALID,1009.91,VALID,0,VALID,103.718,VALID,0.105969,VALID,23.926,VALID,138,VALID,0.921094,
2010-11-08, 00:42:04,VALID,1009.89,VALID,0,VALID,103.695,VALID,0.105969,VALID,23.9065,VALID,124,VALID,1.19609,
2010-11-08, 00:43:04,VALID,1009.87,VALID,0,VALID,103.687,VALID,0.105969,VALID,23.9278,VALID,127,VALID,0.923047,
2010-11-08, 00:44:04,VALID,1009.88,VALID,0,VALID,103.695,VALID,0,VALID,23.9084,VALID,124,VALID,1.33516,
2010-11-08, 00:45:04,VALID,1009.88,VALID,0,VALID,103.687,VALID,0.105969,VALID,23.8676,VALID,132,VALID,1.1418,
2010-11-08, 00:46:04,VALID,1009.84,VALID,0,VALID,103.687,VALID,0.105969,VALID,23.8676,VALID,139,VALID,0.965234,
2010-11-08, 00:47:04,VALID,1009.84,VALID,0,VALID,103.695,VALID,0.105969,VALID,23.8889,VALID,132,VALID,1.0707,
2010-11-08, 00:48:04,VALID,1009.83,VALID,0,VALID,103.68,VALID,0.105969,VALID,23.8889,VALID,123,VALID,0.883203,
2010-11-08, 00:49:04,VALID,1009.81,VALID,0,VALID,103.672,VALID,0.105969,VALID,23.8676,VALID,120,VALID,0.504297,
2010-11-08, 00:50:04,VALID,1009.79,VALID,0,VALID,103.695,VALID,0,VALID,23.8481,VALID,92,VALID,1.05117,
2010-11-08, 00:51:04,VALID,1009.76,VALID,0,VALID,103.687,VALID,0.105969,VALID,23.8694,VALID,111,VALID,0.806641,
2010-11-08, 00:52:04,VALID,1009.77,VALID,0,VALID,103.672,VALID,0.105969,VALID,23.8676,VALID,109,VALID,0.716016,
2010-11-08, 00:53:04,VALID,1009.73,VALID,0,VALID,103.657,VALID,0.105969,VALID,23.8871,VALID,101,VALID,1.0582,
2010-11-08, 00:54:04,VALID,1009.7,VALID,0,VALID,103.649,VALID,0.105969,VALID,23.8871,VALID,90,VALID,0.960547,
2010-11-08, 00:55:04,VALID,1009.68,VALID,0,VALID,103.672,VALID,0.105969,VALID,23.8676,VALID,98,VALID,1.01836,
2010-11-08, 00:56:04,VALID,1009.67,VALID,0,VALID,103.657,VALID,0.105969,VALID,23.9084,VALID,93,VALID,0.942578,
2010-11-08, 00:57:04,VALID,1009.65,VALID,0,VALID,103.657,VALID,0.105969,VALID,23.8871,VALID,98,VALID,1.25625,
2010-11-08, 00:58:04,VALID,1009.62,VALID,0,VALID,103.642,VALID,0,VALID,23.8871,VALID,75,VALID,1.30117,
2010-11-08, 00:59:04,VALID,1009.62,VALID,0,VALID,103.672,VALID,0,VALID,23.9084,VALID,98,VALID,1.25937,
2010-11-08, 01:00:04,VALID,1009.62,VALID,0,VALID,103.68,VALID,0,VALID,23.8871,VALID,103,VALID,1.01055,
2010-11-08, 01:01:04,VALID,1009.63,VALID,0,VALID,103.687,VALID,0.105969,VALID,23.8889,VALID,91,VALID,1.21445,
2010-11-08, 01:02:04,VALID,1009.63,VALID,0,VALID,103.672,VALID,0,VALID,23.8676,VALID,69,VALID,0.832812,
2010-11-08, 01:03:04,VALID,1009.59,VALID,0,VALID,103.664,VALID,0.105969,VALID,23.8694,VALID,73,VALID,1.24648,
2010-11-08, 01:04:04,VALID,1009.57,VALID,0,VALID,103.642,VALID,0,VALID,23.8694,VALID,98,VALID,1.28437,
2010-11-08, 01:05:04,VALID,1009.57,VALID,0,VALID,103.649,VALID,0,VALID,23.8676,VALID,72,VALID,0.901953,
2010-11-08, 01:06:04,VALID,1009.55,VALID,0,VALID,103.672,VALID,0,VALID,23.8481,VALID,87,VALID,1.01328,
2010-11-08, 01:07:04,VALID,1009.54,VALID,0,VALID,103.687,VALID,0,VALID,23.8499,VALID,76,VALID,1.64805,
2010-11-08, 01:08:04,VALID,1009.56,VALID,0,VALID,103.687,VALID,0,VALID,23.8109,VALID,77,VALID,1.19219,
2010-11-08, 01:09:04,VALID,1009.59,VALID,0,VALID,103.68,VALID,0,VALID,23.8304,VALID,78,VALID,0.749219,
2010-11-08, 01:10:04,VALID,1009.56,VALID,0,VALID,103.664,VALID,0,VALID,23.8109,VALID,69,VALID,1.03477,
2010-11-08, 01:11:04,VALID,1009.55,VALID,0,VALID,103.672,VALID,0,VALID,23.8109,VALID,72,VALID,0.547266,
2010-11-08, 01:12:04,VALID,1009.58,VALID,0,VALID,103.68,VALID,0,VALID,23.8109,VALID,87,VALID,1.12344,
2010-11-08, 01:13:04,VALID,1009.56,VALID,0,VALID,103.695,VALID,0,VALID,23.8109,VALID,74,VALID,0.544922,
2010-11-08, 01:14:04,VALID,1009.53,VALID,0,VALID,103.649,VALID,0,VALID,23.8109,VALID,84,VALID,0.411719,
2010-11-08, 01:15:04,VALID,1009.5,VALID,0,VALID,103.649,VALID,0,VALID,23.8109,VALID,75,VALID,1.01172,
2010-11-08, 01:16:04,VALID,1009.52,VALID,0,VALID,103.657,VALID,0,VALID,23.7914,VALID,92,VALID,0.853125,
2010-11-08, 01:17:04,VALID,1009.52,VALID,0,VALID,103.649,VALID,0,VALID,23.8127,VALID,99,VALID,1.33164,
2010-11-08, 01:18:04,VALID,1009.51,VALID,0,VALID,103.664,VALID,0,VALID,23.8127,VALID,119,VALID,0.951563,
2010-11-08, 01:19:04,VALID,1009.52,VALID,0,VALID,103.657,VALID,0,VALID,23.8127,VALID,102,VALID,1.22344,
2010-11-08, 01:20:04,VALID,1009.49,VALID,0,VALID,103.657,VALID,0,VALID,23.7932,VALID,106,VALID,0.6,
2010-11-08, 01:21:04,VALID,1009.48,VALID,0,VALID,103.657,VALID,0,VALID,23.8109,VALID,88,VALID,0.780859,
2010-11-08, 01:22:04,VALID,1009.46,VALID,0,VALID,103.626,VALID,0,VALID,23.8304,VALID,88,VALID,0.867188,
2010-11-08, 01:23:04,VALID,1009.45,VALID,0,VALID,103.695,VALID,0.105969,VALID,23.8109,VALID,72,VALID,1.05117,
2010-11-08, 01:24:04,VALID,1009.43,VALID,0,VALID,103.687,VALID,0,VALID,23.7896,VALID,80,VALID,1.1707,
2010-11-08, 01:25:04,VALID,1009.4,VALID,0,VALID,103.68,VALID,0.105969,VALID,23.8109,VALID,88,VALID,0.678125,
2010-11-08, 01:26:04,VALID,1009.34,VALID,0,VALID,103.726,VALID,0,VALID,23.7701,VALID,94,VALID,1.00391,
2010-11-08, 01:27:04,VALID,1009.32,VALID,0,VALID,103.68,VALID,0,VALID,23.7896,VALID,93,VALID,0.696094,
2010-11-08, 01:28:04,VALID,1009.31,VALID,0,VALID,103.687,VALID,0.105969,VALID,23.7896,VALID,115,VALID,1.06445,
2010-11-08, 01:29:04,VALID,1009.27,VALID,0,VALID,103.672,VALID,0,VALID,23.7896,VALID,109,VALID,0.790625,
2010-11-08, 01:30:04,VALID,1009.26,VALID,0,VALID,103.664,VALID,0,VALID,23.8091,VALID,110,VALID,0.555078,
2010-11-08, 01:31:04,VALID,1009.27,VALID,0,VALID,103.672,VALID,0,VALID,23.8304,VALID,117,VALID,0.534375,
2010-11-08, 01:32:04,VALID,1009.22,VALID,0,VALID,103.672,VALID,0.105969,VALID,23.8091,VALID,114,VALID,0.933594,
2010-11-08, 01:33:04,VALID,1009.19,VALID,0,VALID,103.703,VALID,0,VALID,23.8091,VALID,122,VALID,1.22187,
2010-11-08, 01:34:04,VALID,1009.2,VALID,0,VALID,103.71,VALID,0,VALID,23.7701,VALID,109,VALID,1.11367,
2010-11-08, 01:35:04,VALID,1009.18,VALID,0,VALID,103.695,VALID,0.105969,VALID,23.7701,VALID,121,VALID,1.14609,
2010-11-08, 01:36:04,VALID,1009.17,VALID,0,VALID,103.703,VALID,0.105969,VALID,23.7896,VALID,97,VALID,0.837109,
2010-11-08, 01:37:04,VALID,1009.18,VALID,0,VALID,103.687,VALID,0.105969,VALID,23.7896,VALID,116,VALID,0.990625,
2010-11-08, 01:38:04,VALID,1009.18,VALID,0,VALID,103.695,VALID,0,VALID,23.7914,VALID,136,VALID,0.960156,
2010-11-08, 01:39:04,VALID,1009.18,VALID,0,VALID,103.703,VALID,0,VALID,23.7914,VALID,132,VALID,0.959766,
2010-11-08, 01:40:04,VALID,1009.2,VALID,0,VALID,103.726,VALID,0,VALID,23.7932,VALID,130,VALID,0.857422,
2010-11-08, 01:41:04,VALID,1009.18,VALID,0,VALID,103.695,VALID,0,VALID,23.7932,VALID,128,VALID,0.745313,
2010-11-08, 01:42:04,VALID,1009.14,VALID,0,VALID,103.71,VALID,0,VALID,23.772,VALID,112,VALID,1.1957,
2010-11-08, 01:43:04,VALID,1009.16,VALID,0,VALID,103.687,VALID,0,VALID,23.7932,VALID,139,VALID,1.3043,
2010-11-08, 01:44:04,VALID,1009.16,VALID,0,VALID,103.703,VALID,0,VALID,23.772,VALID,137,VALID,1.53555,
2010-11-08, 01:45:04,VALID,1009.17,VALID,0,VALID,103.71,VALID,0,VALID,23.7525,VALID,132,VALID,1.59922,
2010-11-08, 01:46:04,VALID,1009.17,VALID,0,VALID,103.718,VALID,0,VALID,23.7525,VALID,134,VALID,1.68203,
2010-11-08, 01:47:04,VALID,1009.17,VALID,0,VALID,103.726,VALID,0,VALID,23.7543,VALID,144,VALID,1.33594,
2010-11-08, 01:48:04,VALID,1009.15,VALID,0,VALID,103.718,VALID,0,VALID,23.7525,VALID,135,VALID,1.05156,
2010-11-08, 01:49:04,VALID,1009.16,VALID,0,VALID,103.71,VALID,0,VALID,23.7543,VALID,132,VALID,2.01836,
2010-11-08, 01:50:04,VALID,1009.15,VALID,0,VALID,103.703,VALID,0,VALID,23.733,VALID,139,VALID,1.43906,
2010-11-08, 01:51:04,VALID,1009.13,VALID,0,VALID,103.71,VALID,0,VALID,23.7348,VALID,124,VALID,0.946094,
2010-11-08, 01:52:04,VALID,1009.1,VALID,0,VALID,103.703,VALID,0,VALID,23.694,VALID,122,VALID,1.49023,
2010-11-08, 01:53:04,VALID,1009.1,VALID,0,VALID,103.718,VALID,0.105969,VALID,23.694,VALID,126,VALID,1.25898,
2010-11-08, 01:54:04,VALID,1009.1,VALID,0.5,VALID,103.733,VALID,0,VALID,23.694,VALID,130,VALID,1.31992,
2010-11-08, 01:55:04,VALID,1009.13,VALID,0,VALID,103.71,VALID,0,VALID,23.6532,VALID,136,VALID,1.32148,
2010-11-08, 01:56:04,VALID,1009.15,VALID,0,VALID,103.726,VALID,0,VALID,23.6338,VALID,138,VALID,1.20117,
2010-11-08, 01:57:04,VALID,1009.13,VALID,0,VALID,103.726,VALID,0.105969,VALID,23.6143,VALID,150,VALID,1.16094,
2010-11-08, 01:58:04,VALID,1009.14,VALID,0,VALID,103.703,VALID,0,VALID,23.655,VALID,128,VALID,0.457812,
2010-11-08, 01:59:04,VALID,1009.12,VALID,0,VALID,103.726,VALID,0,VALID,23.6161,VALID,128,VALID,1.34336,
2010-11-08, 02:00:04,VALID,1009.12,VALID,0,VALID,103.733,VALID,0,VALID,23.5753,VALID,130,VALID,1.38437,
2010-11-08, 02:01:04,VALID,1009.11,VALID,0,VALID,103.726,VALID,0,VALID,23.5771,VALID,101,VALID,0.862891,
2010-11-08, 02:02:04,VALID,1009.1,VALID,0,VALID,103.726,VALID,0,VALID,23.5363,VALID,127,VALID,0.636328,
2010-11-08, 02:03:04,VALID,1009.05,VALID,0,VALID,103.726,VALID,0,VALID,23.5771,VALID,127,VALID,0.917969,
2010-11-08, 02:04:04,VALID,1009.06,VALID,0,VALID,103.741,VALID,0.105969,VALID,23.5576,VALID,164,VALID,1.42188,
2010-11-08, 02:05:04,VALID,1009.04,VALID,0,VALID,103.771,VALID,0,VALID,23.4992,VALID,164,VALID,1.02344,
2010-11-08, 02:06:04,VALID,1009.06,VALID,0,VALID,103.756,VALID,0,VALID,23.4974,VALID,153,VALID,0.689062,
2010-11-08, 02:07:04,VALID,1009.06,VALID,0,VALID,103.71,VALID,0.105969,VALID,23.5381,VALID,114,VALID,0.607813,
2010-11-08, 02:08:04,VALID,1009.04,VALID,0,VALID,103.718,VALID,0,VALID,23.5204,VALID,121,VALID,1.19062,
2010-11-08, 02:09:04,VALID,1009.06,VALID,0,VALID,103.733,VALID,0,VALID,23.4992,VALID,133,VALID,1.09063,
2010-11-08, 02:10:04,VALID,1009.05,VALID,0.5,VALID,103.748,VALID,0,VALID,23.4815,VALID,109,VALID,0.985547,
2010-11-08, 02:11:04,VALID,1009.04,VALID,0,VALID,103.71,VALID,0,VALID,23.4797,VALID,109,VALID,0.817187,
2010-11-08, 02:12:04,VALID,1009.09,VALID,0,VALID,103.71,VALID,0,VALID,23.5009,VALID,121,VALID,0.799219,
2010-11-08, 02:13:04,VALID,1009.03,VALID,0,VALID,103.718,VALID,0,VALID,23.4602,VALID,122,VALID,0.666406,
2010-11-08, 02:14:04,VALID,1009.03,VALID,0,VALID,103.71,VALID,0,VALID,23.4602,VALID,133,VALID,0.922656,
2010-11-08, 02:15:04,VALID,1009.02,VALID,0,VALID,103.703,VALID,0,VALID,23.4815,VALID,141,VALID,0.445313,
2010-11-08, 02:16:04,VALID,1009.01,VALID,0,VALID,103.687,VALID,0,VALID,23.4815,VALID,116,VALID,0.609375,
2010-11-08, 02:17:04,VALID,1008.99,VALID,0,VALID,103.672,VALID,0,VALID,23.4797,VALID,116,VALID,0.514063,
2010-11-08, 02:18:04,VALID,1008.97,VALID,0,VALID,103.703,VALID,0,VALID,23.4815,VALID,116,VALID,0.689062,
2010-11-08, 02:19:04,VALID,1008.97,VALID,0,VALID,103.68,VALID,0,VALID,23.4602,VALID,116,VALID,0.54375,
2010-11-08, 02:20:04,VALID,1008.93,VALID,0,VALID,103.687,VALID,0,VALID,23.4815,VALID,116,VALID,0.697266,
2010-11-08, 02:21:04,VALID,1008.93,VALID,0,VALID,103.672,VALID,0,VALID,23.5009,VALID,116,VALID,0.458594,
2010-11-08, 02:22:04,VALID,1008.93,VALID,0,VALID,103.672,VALID,0,VALID,23.5009,VALID,117,VALID,1.03086,
2010-11-08, 02:23:04,VALID,1008.93,VALID,0,VALID,103.664,VALID,0.105969,VALID,23.4584,VALID,129,VALID,1.13945,
2010-11-08, 02:24:04,VALID,1008.91,VALID,0,VALID,103.664,VALID,0.105969,VALID,23.4602,VALID,124,VALID,0.759375,
2010-11-08, 02:25:04,VALID,1008.9,VALID,0,VALID,103.642,VALID,0.105969,VALID,23.4584,VALID,133,VALID,0.811328,
2010-11-08, 02:26:04,VALID,1008.88,VALID,0,VALID,103.657,VALID,0.105969,VALID,23.4389,VALID,147,VALID,0.882031,
2010-11-08, 02:27:04,VALID,1008.88,VALID,0,VALID,103.642,VALID,0.105969,VALID,23.4992,VALID,137,VALID,0.925,
2010-11-08, 02:28:04,VALID,1008.91,VALID,0.5,VALID,103.657,VALID,0.105969,VALID,23.4407,VALID,131,VALID,1.02266,
2010-11-08, 02:29:04,VALID,1008.91,VALID,0,VALID,103.649,VALID,0,VALID,23.4407,VALID,158,VALID,0.601172,
2010-11-08, 02:30:04,VALID,1008.89,VALID,0,VALID,103.726,VALID,0,VALID,23.3628,VALID,157,VALID,1.29414,
2010-11-08, 02:31:04,VALID,1008.91,VALID,0,VALID,103.748,VALID,0,VALID,23.3433,VALID,165,VALID,1.19453,
2010-11-08, 02:32:04,VALID,1008.89,VALID,0,VALID,103.756,VALID,0.105969,VALID,23.3026,VALID,164,VALID,1.45078,
2010-11-08, 02:33:04,VALID,1008.88,VALID,0,VALID,103.802,VALID,0.105969,VALID,23.2654,VALID,144,VALID,1.41836,
2010-11-08, 02:34:04,VALID,1008.88,VALID,0,VALID,103.771,VALID,0,VALID,23.2654,VALID,156,VALID,1.50508,
2010-11-08, 02:35:04,VALID,1008.89,VALID,0,VALID,103.779,VALID,0,VALID,23.2051,VALID,147,VALID,0.933203,
2010-11-08, 02:36:04,VALID,1008.91,VALID,0,VALID,103.764,VALID,0.105969,VALID,23.2051,VALID,163,VALID,0.976563,
2010-11-08, 02:37:04,VALID,1008.88,VALID,0,VALID,103.787,VALID,0.105969,VALID,23.1857,VALID,149,VALID,1.28711,
2010-11-08, 02:38:04,VALID,1008.9,VALID,0,VALID,103.794,VALID,0.105969,VALID,23.1874,VALID,139,VALID,0.796094,
2010-11-08, 02:39:04,VALID,1008.91,VALID,0,VALID,103.764,VALID,0,VALID,23.1874,VALID,139,VALID,0.853906,
2010-11-08, 02:40:04,VALID,1008.93,VALID,0,VALID,103.787,VALID,0.105969,VALID,23.1679,VALID,139,VALID,0.658203,
2010-11-08, 02:41:04,VALID,1008.9,VALID,0,VALID,103.756,VALID,0.105969,VALID,23.1679,VALID,139,VALID,0.124609,
2010-11-08, 02:42:04,VALID,1008.9,VALID,0,VALID,103.764,VALID,0.105969,VALID,23.1679,VALID,139,VALID,0.647266,
2010-11-08, 02:43:04,VALID,1008.91,VALID,0,VALID,103.771,VALID,0,VALID,23.1485,VALID,139,VALID,0.362891,
2010-11-08, 02:44:04,VALID,1008.9,VALID,0,VALID,103.794,VALID,0.105969,VALID,23.129,VALID,135,VALID,0.313672,
2010-11-08, 02:45:04,VALID,1008.87,VALID,0,VALID,103.787,VALID,0,VALID,23.129,VALID,135,VALID,0.228125,
2010-11-08, 02:46:04,VALID,1008.88,VALID,0,VALID,103.787,VALID,0,VALID,23.129,VALID,134,VALID,0.466016,
2010-11-08, 02:47:04,VALID,1008.86,VALID,0,VALID,103.809,VALID,0,VALID,23.09,VALID,134,VALID,0.461328,
2010-11-08, 02:48:04,VALID,1008.86,VALID,0,VALID,103.817,VALID,0,VALID,23.0688,VALID,134,VALID,0.284766,
2010-11-08, 02:49:04,VALID,1008.88,VALID,0,VALID,103.802,VALID,0,VALID,23.0688,VALID,134,VALID,0.528906,
2010-11-08, 02:50:04,VALID,1008.86,VALID,0,VALID,103.848,VALID,0,VALID,23.0511,VALID,135,VALID,0.71875,
2010-11-08, 02:51:04,VALID,1008.8,VALID,0,VALID,103.848,VALID,0,VALID,23.0493,VALID,135,VALID,0.998047,
2010-11-08, 02:52:04,VALID,1008.78,VALID,0,VALID,103.817,VALID,0,VALID,23.09,VALID,135,VALID,0.95625,
2010-11-08, 02:53:04,VALID,1008.81,VALID,0,VALID,103.802,VALID,0.105969,VALID,23.0883,VALID,144,VALID,1.24141,
2010-11-08, 02:54:04,VALID,1008.78,VALID,0,VALID,103.779,VALID,0.105969,VALID,23.1272,VALID,149,VALID,1.18945,
2010-11-08, 02:55:04,VALID,1008.77,VALID,0,VALID,103.771,VALID,0,VALID,23.1467,VALID,149,VALID,1.07617,
2010-11-08, 02:56:04,VALID,1008.77,VALID,0,VALID,103.779,VALID,0.105969,VALID,23.1485,VALID,154,VALID,0.971875,
2010-11-08, 02:57:04,VALID,1008.77,VALID,0,VALID,103.802,VALID,0.105969,VALID,23.1077,VALID,135,VALID,1.35234,
2010-11-08, 02:58:04,VALID,1008.75,VALID,0,VALID,103.764,VALID,0.105969,VALID,23.1485,VALID,137,VALID,0.804297,
2010-11-08, 02:59:04,VALID,1008.74,VALID,0,VALID,103.787,VALID,0.105969,VALID,23.1077,VALID,141,VALID,0.799219,
2010-11-08, 03:00:04,VALID,1008.76,VALID,0,VALID,103.794,VALID,0.105969,VALID,23.1077,VALID,143,VALID,0.917188,
2010-11-08, 03:01:04,VALID,1008.72,VALID,0,VALID,103.787,VALID,0,VALID,23.1077,VALID,130,VALID,1.22227,
2010-11-08, 03:02:04,VALID,1008.72,VALID,0,VALID,103.809,VALID,0.105969,VALID,23.0883,VALID,152,VALID,1.56445,
2010-11-08, 03:03:04,VALID,1008.71,VALID,0,VALID,103.794,VALID,0.105969,VALID,23.0883,VALID,106,VALID,1.26484,
2010-11-08, 03:04:04,VALID,1008.7,VALID,0,VALID,103.802,VALID,0.105969,VALID,23.0688,VALID,124,VALID,1.31094,
2010-11-08, 03:05:04,VALID,1008.66,VALID,0,VALID,103.817,VALID,0.105969,VALID,23.0688,VALID,105,VALID,1.06758,
2010-11-08, 03:06:04,VALID,1008.62,VALID,0,VALID,103.809,VALID,0.105969,VALID,23.0281,VALID,118,VALID,1.18125,
2010-11-08, 03:07:04,VALID,1008.61,VALID,0,VALID,103.794,VALID,0.105969,VALID,23.0298,VALID,96,VALID,1.02461,
2010-11-08, 03:08:04,VALID,1008.61,VALID,0,VALID,103.802,VALID,0,VALID,23.0316,VALID,102,VALID,1.01367,
2010-11-08, 03:09:04,VALID,1008.6,VALID,0,VALID,103.84,VALID,0,VALID,22.9926,VALID,98,VALID,1.60586,
2010-11-08, 03:10:04,VALID,1008.58,VALID,0,VALID,103.855,VALID,0,VALID,22.9731,VALID,103,VALID,1.31797,
2010-11-08, 03:11:04,VALID,1008.56,VALID,0,VALID,103.832,VALID,0,VALID,22.9731,VALID,79,VALID,1.40664,
2010-11-08, 03:12:04,VALID,1008.58,VALID,0,VALID,103.848,VALID,0,VALID,22.9536,VALID,88,VALID,1.14609,
2010-11-08, 03:13:04,VALID,1008.6,VALID,0,VALID,103.832,VALID,0,VALID,22.9536,VALID,74,VALID,0.827344,
2010-11-08, 03:14:04,VALID,1008.6,VALID,0,VALID,103.817,VALID,0,VALID,22.9536,VALID,74,VALID,0.333203,
2010-11-08, 03:15:04,VALID,1008.61,VALID,0,VALID,103.794,VALID,0,VALID,22.9519,VALID,89,VALID,0.784375,
2010-11-08, 03:16:04,VALID,1008.61,VALID,0,VALID,103.832,VALID,0,VALID,22.9342,VALID,91,VALID,0.442578,
2010-11-08, 03:17:04,VALID,1008.58,VALID,0,VALID,103.809,VALID,0,VALID,22.9536,VALID,119,VALID,1.42266,
2010-11-08, 03:18:04,VALID,1008.52,VALID,0,VALID,103.817,VALID,0,VALID,22.9536,VALID,134,VALID,1.16719,
2010-11-08, 03:19:04,VALID,1008.51,VALID,0,VALID,103.809,VALID,0,VALID,22.9536,VALID,135,VALID,1.95195,
2010-11-08, 03:20:04,VALID,1008.51,VALID,0,VALID,103.832,VALID,0,VALID,22.9342,VALID,129,VALID,1.63711,
2010-11-08, 03:21:04,VALID,1008.52,VALID,0,VALID,103.817,VALID,0,VALID,22.9342,VALID,135,VALID,1.39453,
2010-11-08, 03:22:04,VALID,1008.51,VALID,0,VALID,103.863,VALID,0,VALID,22.8757,VALID,153,VALID,1.72383,
2010-11-08, 03:23:04,VALID,1008.53,VALID,0,VALID,103.87,VALID,0,VALID,22.8368,VALID,135,VALID,1.11836,
2010-11-08, 03:24:04,VALID,1008.55,VALID,0,VALID,103.855,VALID,0,VALID,22.8173,VALID,120,VALID,1.15508,
2010-11-08, 03:25:04,VALID,1008.53,VALID,0,VALID,103.825,VALID,0,VALID,22.8173,VALID,157,VALID,0.764453,
2010-11-08, 03:26:04,VALID,1008.52,VALID,0,VALID,103.817,VALID,0,VALID,22.8173,VALID,161,VALID,1.02422,
2010-11-08, 03:27:04,VALID,1008.51,VALID,0,VALID,103.84,VALID,0,VALID,22.7783,VALID,149,VALID,0.898438,
2010-11-08, 03:28:04,VALID,1008.55,VALID,0,VALID,103.825,VALID,0,VALID,22.7783,VALID,156,VALID,0.937891,
2010-11-08, 03:29:04,VALID,1008.52,VALID,0,VALID,103.817,VALID,0,VALID,22.7783,VALID,156,VALID,0.233203,
2010-11-08, 03:30:04,VALID,1008.52,VALID,0,VALID,103.825,VALID,0,VALID,22.7394,VALID,153,VALID,0.633594,
2010-11-08, 03:31:04,VALID,1008.53,VALID,0,VALID,103.832,VALID,0,VALID,22.7216,VALID,120,VALID,0.4,
2010-11-08, 03:32:04,VALID,1008.49,VALID,0,VALID,103.817,VALID,0,VALID,22.7199,VALID,137,VALID,0.799609,
2010-11-08, 03:33:04,VALID,1008.52,VALID,0,VALID,103.817,VALID,0,VALID,22.7199,VALID,91,VALID,0.734375,
2010-11-08, 03:34:04,VALID,1008.5,VALID,0,VALID,103.802,VALID,0,VALID,22.7394,VALID,97,VALID,0.840234,
2010-11-08, 03:35:04,VALID,1008.51,VALID,0,VALID,103.809,VALID,0,VALID,22.7394,VALID,98,VALID,0.448828,
2010-11-08, 03:36:04,VALID,1008.52,VALID,0,VALID,103.825,VALID,0,VALID,22.7394,VALID,90,VALID,0.819531,
2010-11-08, 03:37:04,VALID,1008.53,VALID,0,VALID,103.825,VALID,0,VALID,22.7199,VALID,94,VALID,0.689062,
2010-11-08, 03:38:04,VALID,1008.52,VALID,0,VALID,103.832,VALID,0,VALID,22.7411,VALID,94,VALID,0.698828,
2010-11-08, 03:39:04,VALID,1008.53,VALID,0,VALID,103.825,VALID,0,VALID,22.7199,VALID,91,VALID,0.611328,
2010-11-08, 03:40:04,VALID,1008.51,VALID,0,VALID,103.832,VALID,0,VALID,22.6809,VALID,83,VALID,0.926562,
2010-11-08, 03:41:04,VALID,1008.53,VALID,0,VALID,103.832,VALID,0,VALID,22.6809,VALID,80,VALID,1.41055,